Terminal Aerodrome Forecast
Issued by NWS

Home | Current Version | Previous Version | Text Only | Print | Product List | Glossary On
Versions: 1 2 3 4 5 6 7 8 9 10 11 12 13 14
000
FTUS43 KGRB 021734
TAFMTW
TAF
KMTW 021734Z 0218/0318 22015G25KT P6SM SCT035 BKN250
     FM022300 25014G25KT P6SM SCT035
      TEMPO 0300/0302 3SM TSRA BR BKN035CB
     FM030200 34011G18KT P6SM SCT035
     FM030500 31007KT P6SM SCT035=

USA.gov is the U.S. government's official web portal to all federal, state and local government web resources and services.